SCP
1 1 1 1 1 1 1 1 1 1 1 1 1 1 0 0 0 1 1 1 1 1 0 0 0 0 1 1 1 1 1 0 0 0 0 0 0 0 0 0 0 0 0
1 1 1 1 1 1 1 1 1 1 1 1 1 1 0 0 1 1 1 1 1 1 1 1 0 1 1 1 1 1 1 1 1 1 0 0 0 0 0 0 0 0 0
1 1 1 1 1 1 1 1 1 1 1 1 0 0 0 1 1 1 1 1 1 1 1 1 1 1 1 1 1 1 1 1 1 1 1 0 0 0 0 0 0 0 0
0 1 1 1 1 1 1 1 0 0 0 0 0 0 0 1 1 1 1 1 1 1 1 1 1 1 1 1 1 1 1 1 1 1 1 1 1 0 0 0 0 0 0
0 0 0 0 0 0 0 0 0 0 0 0 0 0 0 0 0 0 1 1 1 1 1 1 1 1 1 1 1 1 1 1 1 1 1 1 1 1 0 0 0 0 0
0 0 0 0 0 0 0 0 0 0 0 0 0 0 0 0 0 0 0 0 1 1 1 1 1 1 1 1 1 1 1 1 1 1 1 1 1 1 0 0 0 0 0
0 0 0 0 0 0 0 0 0 0 0 0 0 0 0 0 0 0 0 0 0 1 1 1 1 1 1 1 1 1 1 1 1 1 1 1 1 1 1 0 0 0 0
0 0 0 0 0 0 0 0 0 0 0 0 0 0 0 0 0 0 0 0 1 1 1 1 1 1 1 1 1 1 1 1 1 1 1 1 1 1 1 0 0 0 0
0 0 0 0 0 0 0 0 0 0 0 0 0 0 0 0 0 0 0 0 0 0 0 0 1 1 1 1 1 1 1 1 1 1 1 1 1 1 1 0 0 0 0
0 0 0 0 0 0 0 0 0 0 0 0 0 0 0 0 0 0 0 0 0 0 0 0 0 1 1 1 1 1 1 1 1 1 1 1 1 1 1 0 0 0 0
0 0 0 0 0 0 0 0 0 0 0 0 0 0 0 0 0 0 0 0 0 0 0 0 0 0 1 1 1 1 1 1 1 1 1 1 1 1 1 0 0 0 0
0 0 0 0 0 0 0 0 0 0 0 0 0 0 0 0 0 0 0 0 0 0 0 0 0 0 0 1 1 0 0 0 0 0 1 1 1 1 0 0 0 0 0
0 0 0 0 0 0 0 0 0 0 0 0 0 0 0 0 0 0 0 0 0 0 0 0 0 0 0 0 0 0 0 0 0 0 0 0 0 0 0 0 0 0 0
0 0 0 0 0 0 0 0 0 0 0 0 0 0 0 0 0 0 0 0 0 0 0 0 0 0 0 0 0 0 0 0 0 0 0 0 0 0 0 0 0 0 0
0 0 0 0 0 0 0 0 0 0 0 0 0 0 0 0 0 0 0 0 0 0 0 0 0 0 0 0 0 0 0 0 0 0 0 0 0 0 0 0 0 0 0
0 0 0 0 0 0 0 0 0 0 0 0 0 0 0 0 0 0 0 0 0 0 0 0 0 0 0 0 0 0 0 0 0 0 0 0 0 0 0 0 0 0 0
0 0 0 0 0 0 0 0 0 0 0 0 0 0 0 0 0 0 0 0 0 0 0 0 0 0 0 0 0 0 0 0 0 0 0 0 0 0 0 0 0 0 0
0 0 0 0 0 0 0 0 0 0 0 0 0 0 0 0 0 0 0 0 0 0 0 0 0 0 0 0 0 0 0 0 0 0 0 0 0 0 0 0 0 0 0
0 0 0 0 0 0 0 0 0 0 0 0 0 0 0 0 0 0 0 0 0 0 0 0 0 0 0 0 0 0 0 0 0 0 0 0 0 0 0 0 0 0 0
0 0 0 0 0 0 0 0 0 0 0 0 0 0 0 0 0 0 0 0 0 0 0 0 0 0 0 0 0 0 0 0 0 0 0 0 0 0 0 0 0 0 0
0 0 0 0 0 0 0 0 0 0 0 0 0 0 0 0 0 0 0 0 0 0 0 0 0 0 0 0 0 0 0 0 0 0 0 0 0 0 0 0 0 0 0
0 0 0 0 0 0 0 0 0 0 0 0 0 0 0 0 0 0 0 0 0 0 0 0 0 0 0 0 0 0 0 0 0 0 0 0 0 0 0 0 0 0 0
0 0 0 0 0 0 0 0 0 0 0 0 0 0 0 0 0 0 0 0 0 0 0 0 0 0 0 0 0 0 0 0 0 0 0 0 0 0 0 0 0 0 0
0 0 0 0 0 0 0 0 0 0 0 0 0 0 0 0 0 0 0 0 0 0 0 0 0 0 0 0 0 0 0 0 0 0 0 0 0 0 0 0 0 0 0
0 0 0 0 0 0 0 0 0 0 0 0 0 0 0 0 0 0 0 0 0 0 0 0 0 0 0 0 0 0 0 0 0 0 0 0 0 0 0 0 0 0 0
0 0 0 0 0 0 0 0 0 0 0 0 0 0 0 0 0 0 0 0 0 0 0 0 0 0 0 0 0 0 0 0 0 0 0 0 0 0 0 0 0 0 0
Wind_Speed
4 4 3 3 4 3 4 5 5 5 6 7 8 9 10 11 10 9 5 11 14 15 16 17 17 18 19 19 19 18 18 18 17 15 15 14 14 15 14 14 13 12 11
4 4 4 4 4 4 4 4 5 5 6 6 8 9 10 11 9 10 10 10 15 16 17 18 18 18 19 20 21 20 20 19 17 17 16 15 15 15 15 15 14 13 12
4 4 4 4 4 4 4 5 5 5 6 6 7 9 9 10 10 11 11 9 10 16 18 19 18 18 19 20 22 22 21 20 19 18 17 17 16 15 15 15 15 14 13
4 4 4 4 3 4 4 4 6 6 6 6 6 7 7 7 10 11 11 11 10 10 15 20 19 18 19 21 22 23 22 22 20 20 19 18 17 17 16 16 16 15 14
4 4 4 3 4 4 4 6 5 5 6 6 7 7 7 8 8 10 11 12 12 11 11 13 20 20 21 22 22 22 22 22 22 21 21 21 20 18 18 18 17 16 16
3 4 4 3 6 5 5 5 5 5 6 6 8 7 8 8 8 9 10 10 11 13 14 13 12 15 21 21 20 21 22 22 23 23 22 22 22 20 19 19 18 18 17
3 4 5 4 5 5 6 7 6 7 7 5 7 8 8 9 8 7 8 8 10 11 12 12 11 10 11 21 20 20 22 23 23 23 24 23 23 22 21 20 20 19 18
4 4 4 6 5 5 7 7 6 7 7 6 6 8 8 7 6 6 6 7 8 7 10 12 11 11 10 9 13 21 22 23 24 24 24 23 23 22 21 22 21 20 20
5 5 6 7 6 8 7 6 7 9 8 7 6 7 7 7 5 5 5 6 5 6 7 8 11 11 12 10 9 16 21 21 23 24 24 23 22 21 21 22 22 21 21
6 6 7 7 7 8 7 8 7 7 8 8 7 7 8 8 7 7 6 5 5 6 7 7 8 9 10 9 10 12 17 20 22 24 25 24 23 22 22 22 23 23 22
6 7 7 7 7 8 8 8 8 8 8 9 8 7 7 7 9 9 9 7 7 6 6 7 7 7 8 9 8 12 15 18 20 22 23 24 24 23 23 24 24 24 24
5 6 7 7 8 8 8 8 9 10 9 9 9 8 8 8 8 8 9 9 8 7 6 5 6 6 6 7 10 11 14 17 18 19 21 23 23 23 23 24 25 25 25
6 6 7 7 8 8 8 9 9 10 10 10 9 9 9 9 8 8 9 9 9 7 6 6 5 4 5 5 6 7 12 14 17 18 19 21 22 23 22 22 24 25 24
7 7 8 9 9 10 10 9 9 10 9 9 11 10 9 9 8 8 9 9 9 8 7 6 3 3 3 3 3 6 9 12 15 17 18 19 20 21 22 22 22 22 21
8 8 9 9 10 10 10 10 9 10 9 10 11 11 10 9 9 8 8 8 9 10 8 5 4 2 2 3 3 5 6 8 11 14 15 16 16 17 18 19 19 19 19
9 10 10 10 10 10 10 10 11 10 10 10 9 10 10 10 8 8 9 9 9 9 9 6 4 4 4 4 3 4 4 5 8 10 12 13 14 15 16 16 17 17 17
9 10 10 10 11 11 10 10 11 11 11 12 11 12 12 12 10 9 9 9 9 9 10 8 5 5 5 5 4 3 3 4 4 8 10 11 11 13 14 15 15 16 16
10 10 10 11 11 11 11 11 12 12 12 12 13 12 13 11 12 11 10 11 10 9 10 10 7 5 5 5 4 3 3 3 3 6 8 9 9 10 11 13 13 14 14
10 10 10 11 11 11 11 12 12 12 12 13 13 13 13 13 12 11 11 11 10 10 10 10 9 5 4 4 4 3 3 2 3 5 7 8 8 8 9 10 11 11 12
10 10 10 11 11 11 11 12 12 12 12 13 13 13 13 13 13 13 11 12 11 11 10 10 9 7 5 4 4 3 3 3 3 4 4 6 8 8 8 8 9 10 10
11 10 11 11 10 10 9 9 10 12 12 13 13 13 13 12 11 10 10 10 11 10 10 10 10 8 7 5 5 3 3 4 3 3 5 5 6 6 6 8 8 9 9
10 10 11 11 11 9 3 4 10 13 13 13 13 13 13 13 14 14 15 15 13 13 12 10 10 9 8 7 5 4 4 4 4 4 4 4 4 4 4 4 7 8 9
10 11 11 11 11 10 5 7 10 12 14 13 13 12 12 12 12 14 15 18 18 18 16 13 13 11 9 8 7 7 6 5 3 5 5 4 3 4 3 6 8 7 7
10 10 10 11 11 10 6 8 9 13 14 14 14 14 13 14 13 12 13 13 15 15 16 15 14 12 10 6 7 7 5 4 3 4 4 4 4 3 4 5 7 6 6
10 10 10 11 11 11 7 8 9 11 11 13 13 13 13 14 11 9 12 13 13 12 11 11 10 7 4 3 5 5 6 6 5 4 3 4 4 4 3 4 6 7 7
10 11 10 10 11 12 7 6 8 9 10 10 10 11 11 13 10 8 12 13 13 12 11 11 12 11 11 10 10 9 8 7 6 4 5 5 5 5 4 3 4 5 6
Wind_Direction
257 259 255 258 258 249 237 242 251 254 260 260 254 247 249 247 247 249 236 190 200 211 221 225 225 220 214 209 208 208 207 205 202 200 200 200 197 192 191 191 190 188 186
262 262 251 251 257 262 274 268 263 262 260 261 261 259 256 254 249 246 248 222 207 211 219 225 227 225 220 215 210 208 208 209 205 202 202 203 201 197 196 196 194 192 190
264 265 260 254 260 265 259 261 272 269 262 260 258 259 255 253 252 247 249 249 231 214 215 221 224 225 223 219 215 211 208 208 207 204 203 204 204 201 199 199 198 196 194
264 271 272 273 271 263 261 260 259 264 265 268 266 264 260 253 251 251 250 245 245 240 216 215 219 221 223 222 219 215 212 209 207 206 205 205 206 205 203 202 201 199 197
266 264 274 287 267 262 262 266 271 276 276 274 270 258 259 256 251 248 247 248 243 242 241 213 211 218 222 223 222 218 213 210 209 209 208 207 208 208 206 205 203 201 200
275 283 272 276 277 270 265 267 276 268 274 274 276 277 269 267 259 252 249 246 243 240 239 238 219 216 217 221 221 219 214 211 210 211 212 211 211 210 208 207 205 203 202
293 286 294 290 276 277 280 280 276 269 266 272 272 268 260 250 250 253 249 255 251 246 244 240 234 231 215 213 217 217 215 213 211 213 215 214 213 211 210 209 207 206 205
292 284 301 292 286 287 272 272 270 279 278 265 272 283 278 262 227 243 243 242 254 257 251 243 236 232 238 223 209 209 212 212 212 212 215 215 214 213 211 210 208 207 207
289 301 298 296 303 286 280 282 275 265 273 271 261 272 283 287 302 264 258 258 262 266 260 253 241 233 230 229 222 206 207 210 212 212 213 214 214 213 213 211 210 209 208
285 289 289 289 288 289 290 274 269 276 268 269 259 252 265 290 288 285 267 256 253 259 266 264 257 241 233 229 223 218 208 209 212 212 212 214 214 212 213 214 212 211 210
278 282 287 291 287 282 286 291 291 278 273 269 272 264 257 254 252 265 277 282 273 264 259 258 256 252 244 232 227 221 209 209 211 213 213 212 212 213 214 216 217 215 214
280 281 285 284 281 283 283 276 275 269 268 276 276 273 265 261 260 263 269 271 274 275 277 274 263 255 247 237 231 221 209 208 209 211 212 210 210 212 214 218 219 220 218
292 295 297 293 287 285 280 276 270 272 271 266 263 264 265 264 267 270 273 277 282 280 271 264 256 258 254 245 240 227 217 210 208 209 208 208 208 208 211 217 219 221 220
302 313 296 287 285 282 278 275 272 265 260 262 264 265 268 264 262 262 268 278 279 275 264 261 272 268 273 267 259 234 227 209 207 204 204 205 204 205 207 212 216 217 215
293 293 292 287 284 280 277 276 270 272 268 262 261 254 252 260 258 258 259 262 270 276 275 267 259 273 289 278 277 250 240 207 204 203 201 201 200 201 202 205 208 209 209
288 287 286 285 282 278 274 270 271 263 262 261 262 268 268 264 261 257 256 256 256 264 273 278 278 283 302 299 277 271 246 197 197 196 194 194 195 197 199 201 203 204 204
288 284 285 285 282 279 276 271 269 273 266 264 263 258 254 260 264 262 254 252 252 252 261 267 260 269 272 281 275 265 235 209 190 184 184 183 187 192 195 196 199 199 200
284 284 283 283 281 279 276 272 270 271 269 266 263 263 261 256 251 255 257 253 253 254 257 264 263 262 258 267 266 256 242 207 185 165 170 170 174 184 188 189 193 194 195
287 286 284 284 283 283 279 275 271 269 268 266 265 263 262 260 258 254 253 254 251 245 244 252 254 248 251 251 257 242 214 182 163 147 150 152 157 167 175 180 183 184 187
290 288 287 285 284 282 279 277 274 271 269 267 265 263 261 259 256 256 252 251 253 254 247 247 250 242 230 227 232 227 199 169 158 153 135 131 132 136 148 160 165 168 174
289 288 287 285 283 279 276 285 287 280 275 271 266 262 260 260 268 268 268 259 252 247 245 240 241 239 229 215 222 216 203 161 143 149 139 139 144 146 148 154 156 158 162
292 289 286 285 284 282 318 310 286 285 281 275 271 267 264 252 244 238 249 260 267 260 254 251 245 238 232 224 217 218 198 182 166 165 146 136 148 142 144 142 129 144 155
294 291 288 286 284 284 265 253 258 273 273 271 269 267 264 261 245 244 232 230 239 246 253 260 258 252 237 219 210 210 204 204 177 159 154 134 136 124 114 99 113 131 147
294 291 289 289 288 284 255 248 256 264 265 265 264 262 261 264 261 257 256 245 238 231 227 232 245 251 251 237 214 214 208 183 150 158 160 139 145 130 120 110 108 119 137
292 291 289 290 288 286 261 243 256 276 268 267 265 263 263 262 256 245 254 256 252 245 231 229 239 250 266 216 208 208 198 188 178 169 169 143 137 124 124 120 109 110 122
289 290 292 292 289 287 275 235 247 272 276 277 273 267 256 254 262 238 248 251 249 244 240 215 212 220 223 208 200 215 207 200 184 170 165 150 148 144 133 128 135 140 129